Tracking 22223 objects as of 26-Jan-2021
HD Live streaming from Space Station
objects crossing your sky now

WESTFORD NEEDLES

Track WESTFORD NEEDLES now!
10-day predictions
WESTFORD NEEDLES is classified as:


NORAD ID: 18688
Int'l Code: 1963-014DM
Perigee: 3,614.4 km
Apogee: 3,690.9 km
Inclination: 87.4 °
Period: 166.5 minutes
Semi major axis: 10023 km
RCS: 0.0937 m2 (small)
Launch date: May 9, 1963
Source: United States (US)
Launch site: AIR FORCE WESTERN TEST RANGE (AFWTR)
aabbcc
Your satellite tracking list
Your tracking list is empty




NASA's NSSDC Master Catalog

Two Line Element Set (TLE):
1 18688U 63014DM  21023.61136451  .00000023  00000-0  97060-2 0  9999
2 18688  87.3505  29.9286 0038129 293.3341 190.7288  8.65096779949010
Source of the keplerian elements: AFSPC